Wind_Speed
15 15 15 16 17 18 19 21 22 23 24 24 24 24 25 26 25 25 26 28 30 32 32 31 28 23 15 8 4 6 8 7 4 5 6 8 7 5 5 8 11 13 13 11 7 5 5 5 6 6 7 6 5 7 5 4 4 2 3 3 0 2 3 5 7 6 1 5 5 7 8 5 11 12 12 15 14 18 22 26 26 23 24 23 21 19 19 22
15 16 15 16 16 17 19 20 21 22 23 22 23 23 24 24 24 24 25 27 30 32 32 30 27 23 16 7 2 7 7 4 0 6 9 8 6 4 6 9 11 13 12 9 6 4 4 5 6 7 8 6 4 6 3 3 4 2 3 1 2 4 5 5 7 6 3 6 10 15 13 6 14 16 11 9 12 14 16 25 25 21 24 23 20 20 23 27
16 16 16 16 16 17 19 20 21 22 22 22 22 22 23 24 23 23 23 26 30 32 32 30 26 21 18 9 1 6 8 4 2 7 9 7 4 4 7 9 11 11 10 8 6 5 5 5 7 8 9 5 4 6 3 5 4 2 3 0 5 5 4 5 7 6 7 10 11 15 14 11 22 21 9 5 12 14 10 16 18 17 26 30 30 30 31 30
16 16 16 17 17 17 19 20 21 21 21 21 21 22 23 23 23 22 23 25 29 31 32 31 25 20 17 8 2 3 9 4 5 8 7 4 3 4 7 9 9 10 9 8 7 5 5 6 7 8 6 3 6 6 4 7 5 1 3 3 4 3 2 6 7 8 9 9 10 14 13 14 24 21 11 5 8 11 12 17 17 19 29 34 34 32 31 27
16 17 17 17 18 18 18 19 20 21 21 20 21 21 22 22 21 22 22 24 28 31 31 30 24 18 13 6 4 2 9 2 5 5 4 3 4 5 6 7 8 9 9 9 8 7 7 7 8 7 6 3 5 5 4 7 4 1 4 7 6 3 3 7 4 4 6 8 11 13 11 15 21 19 16 7 3 10 19 26 26 26 30 31 31 30 29 26
16 17 18 18 18 18 18 19 20 20 20 20 20 20 21 22 20 21 21 24 28 30 31 28 22 16 9 6 4 4 8 3 3 3 3 3 5 5 6 8 9 10 10 10 9 8 7 7 8 7 6 3 3 2 4 7 3 1 5 7 9 7 6 8 6 6 8 9 12 11 12 17 17 16 16 10 12 20 26 27 25 25 27 28 28 28 29 27
16 17 18 19 19 19 19 19 19 20 20 19 20 20 21 21 20 20 21 24 28 29 30 25 19 12 6 8 8 8 9 7 3 3 3 4 5 6 7 9 10 11 10 8 8 8 8 9 9 6 4 3 1 0 3 6 1 1 4 6 11 10 9 11 12 13 13 13 15 15 15 17 14 11 11 11 20 24 21 19 20 23 25 27 27 27 31 32
15 17 18 19 19 19 19 19 19 20 19 18 19 19 20 20 19 20 20 24 28 29 28 21 15 8 5 6 8 10 10 7 4 3 4 6 7 8 9 9 9 10 9 8 8 8 9 9 9 6 3 2 1 2 3 6 2 4 4 8 12 17 15 13 15 15 13 13 14 13 11 16 19 13 11 18 21 16 13 15 18 21 24 26 28 29 32 34
15 17 18 19 19 19 19 20 20 19 18 18 19 19 20 19 19 20 20 24 27 29 27 18 10 5 4 1 2 6 7 6 4 4 6 7 7 8 8 8 8 9 10 9 9 9 9 8 7 5 2 1 1 2 1 3 2 4 6 10 12 23 25 18 15 9 9 10 7 6 7 16 22 12 10 14 11 12 16 18 19 24 28 28 28 28 29 30
15 17 18 19 19 20 20 20 20 20 19 18 18 19 20 19 19 20 20 23 28 29 25 15 7 4 3 1 1 4 5 6 6 6 6 6 6 7 7 9 10 12 12 11 10 10 10 8 7 6 2 1 1 2 1 1 3 4 9 14 15 25 26 16 9 5 13 9 8 8 6 16 17 7 5 8 12 17 21 22 25 29 29 27 25 23 23 25
15 17 18 19 20 20 20 20 20 20 19 19 19 18 19 19 19 20 20 22 28 29 23 13 5 5 6 6 8 7 6 9 8 7 7 5 6 7 9 12 14 15 14 12 11 12 11 8 8 6 2 2 3 2 3 3 6 7 9 13 14 20 20 9 3 8 15 4 8 8 7 11 9 1 7 13 16 16 22 27 30 29 26 25 22 21 21 22
15 17 18 19 20 20 20 20 20 20 20 20 19 18 19 18 19 21 20 21 27 30 22 11 3 5 7 11 13 10 9 11 10 9 8 6 6 7 12 16 16 16 14 13 11 12 12 9 8 5 2 3 4 1 2 5 8 8 5 5 8 13 13 7 6 10 13 2 3 5 4 5 3 6 11 17 16 18 26 29 27 27 25 24 22 20 20 22
15 17 18 19 20 20 20 20 21 21 21 20 20 20 19 18 20 21 21 22 28 29 20 10 1 5 4 8 10 10 10 12 12 11 10 8 6 6 10 15 17 16 14 12 11 13 13 10 8 5 3 2 2 2 6 8 6 5 2 0 4 8 6 9 10 12 12 5 13 14 3 4 5 11 13 12 15 24 31 28 26 28 24 24 24 24 26 28
16 17 18 19 20 20 20 20 21 21 22 22 21 20 18 18 20 21 22 25 28 28 18 7 1 4 4 6 8 8 9 10 13 14 13 11 8 6 9 14 17 16 14 11 11 13 12 9 7 5 4 3 3 4 7 6 3 3 3 2 4 5 5 11 12 10 10 6 17 18 5 5 5 12 13 11 16 24 29 31 29 24 23 25 27 29 30 32
16 17 18 19 20 20 20 21 21 22 22 22 21 21 19 18 19 20 23 26 28 27 16 6 1 4 6 7 5 6 6 7 11 16 18 15 11 8 8 14 16 15 13 9 10 13 12 8 7 5 3 4 5 4 3 4 4 2 4 3 3 3 6 12 8 4 6 6 15 15 5 8 8 10 11 16 22 19 19 29 26 20 23 25 27 28 30 34
16 17 18 19 20 20 21 21 22 23 23 22 22 22 18 18 20 18 22 27 27 24 14 6 3 4 4 4 3 5 4 5 11 16 20 17 14 10 9 13 15 15 13 8 8 12 12 8 6 6 5 4 4 3 4 4 4 3 4 4 5 5 7 10 4 5 8 7 9 7 4 10 11 14 19 24 26 21 16 20 17 20 22 25 27 28 30 34
16 17 18 19 20 20 22 21 22 24 23 23 23 23 19 20 21 16 22 27 25 22 11 5 5 4 4 5 2 7 6 4 10 16 19 17 16 13 10 13 14 14 13 7 7 13 13 7 4 3 5 4 1 3 5 5 4 4 3 3 5 5 6 9 6 2 10 9 7 7 6 10 15 17 23 25 24 26 23 15 16 21 22 25 28 30 33 35
17 17 17 19 20 21 22 22 23 25 24 23 23 25 20 20 21 14 20 26 23 19 6 5 8 3 3 6 5 10 6 2 7 16 20 18 17 14 12 15 14 14 14 7 7 14 13 6 3 1 4 5 4 6 5 2 3 4 4 4 5 4 4 6 8 7 10 6 6 11 11 16 20 14 17 22 20 24 22 16 21 23 25 28 30 33 34 35
17 17 17 19 19 21 22 22 24 25 25 23 23 25 20 24 22 11 21 29 19 11 3 8 10 1 1 5 8 9 3 3 5 16 20 18 18 15 14 16 14 16 14 6 9 14 11 7 4 4 5 6 4 3 2 6 6 6 5 3 5 7 5 6 7 6 10 9 8 11 15 21 26 16 15 23 23 20 13 19 22 23 27 29 32 33 34 35
16 17 17 19 19 21 22 22 24 25 26 25 27 27 22 25 18 7 25 30 14 9 8 10 6 1 2 3 9 8 3 2 4 15 19 17 19 15 14 17 15 17 12 2 7 9 9 7 3 1 4 6 5 3 3 4 3 3 4 2 5 8 8 6 5 4 8 8 8 12 20 25 26 17 14 22 24 17 11 19 20 22 24 26 29 30 32 32
16 16 17 18 19 21 21 22 23 24 25 26 28 24 17 17 9 7 21 21 16 16 10 5 1 2 1 2 10 9 4 2 2 14 18 17 20 13 12 16 11 10 7 3 5 5 7 5 2 5 6 4 3 3 3 1 1 2 3 4 5 5 9 9 5 3 8 8 10 13 20 28 25 16 14 16 15 9 14 17 16 20 22 25 28 29 30 30
15 16 17 18 18 20 21 21 22 23 23 24 24 20 15 14 10 11 12 11 19 16 4 2 1 3 3 3 10 10 6 5 3 14 18 17 18 11 8 11 6 2 6 5 4 5 7 3 7 6 4 2 3 4 4 2 1 3 3 3 5 4 7 9 4 2 5 4 10 13 15 26 23 12 11 7 6 10 19 20 18 21 23 26 28 28 30 33
15 15 17 17 18 20 20 21 22 21 21 22 21 17 16 15 14 15 10 8 14 8 0 1 2 3 5 4 8 10 7 7 6 13 18 16 15 11 7 6 3 2 4 5 5 4 4 5 6 2 4 5 3 3 5 4 2 2 3 3 5 5 5 7 8 11 7 3 5 10 10 20 17 8 7 5 18 16 20 22 22 23 24 25 25 26 29 33
15 15 16 17 18 19 19 20 21 20 21 21 18 16 16 16 16 15 10 5 6 4 2 1 1 2 4 5 9 8 6 7 8 12 15 15 12 7 4 3 3 3 0 1 3 0 6 8 3 3 4 4 2 5 4 4 4 2 3 3 5 7 5 6 10 15 13 1 3 5 9 15 11 8 9 5 18 16 18 21 22 22 24 26 26 27 29 30
14 15 15 16 17 18 19 19 18 18 19 18 16 15 16 16 16 14 8 2 3 5 2 2 1 0 2 6 9 8 3 5 9 11 12 14 10 5 2 3 3 1 3 2 2 3 6 5 1 3 5 6 4 4 2 0 3 4 2 3 4 7 7 8 10 12 13 7 2 6 9 14 11 10 11 6 11 9 12 15 14 17 23 28 29 27 27 30
14 15 15 16 17 18 18 18 17 18 19 16 15 15 15 15 16 13 6 3 2 4 0 1 1 1 1 5 8 8 4 2 7 9 10 12 9 4 2 1 2 0 4 2 2 2 3 2 3 4 4 6 5 3 4 3 1 3 2 3 3 4 5 8 10 7 6 10 3 6 3 13 12 8 5 4 8 6 7 8 7 12 19 23 25 22 23 29
13 14 15 15 16 17 17 17 17 18 18 15 14 14 13 14 15 11 6 4 2 2 1 1 2 1 3 4 7 6 3 4 5 5 8 11 8 3 1 2 1 1 2 2 3 2 3 3 6 5 6 5 3 2 4 3 3 3 3 1 2 4 7 7 7 4 4 9 6 4 6 8 10 3 1 6 6 6 7 6 5 11 16 19 21 19 20 27
13 13 14 15 15 16 16 17 17 18 16 15 14 12 11 13 12 7 4 2 2 1 1 1 2 1 2 4 5 4 1 4 2 3 7 8 6 3 1 2 3 4 1 3 3 4 2 1 4 5 6 3 2 2 4 2 2 5 3 2 3 4 7 4 4 6 4 5 6 2 4 4 8 3 5 9 5 6 9 7 6 13 18 19 22 21 20 26
12 13 14 14 15 15 15 16 17 17 15 14 13 10 10 12 8 4 4 1 2 1 1 1 2 2 4 3 2 3 3 1 0 3 5 3 5 5 0 2 3 2 1 3 4 4 0 1 1 4 3 2 3 2 2 3 1 6 4 3 3 3 5 3 3 5 4 4 5 3 2 1 8 7 6 5 4 4 7 6 6 14 18 17 22 25 25 31
12 13 14 14 15 15 15 16 16 15 14 12 11 9 10 9 4 4 2 3 1 0 1 1 2 4 6 4 2 3 2 1 1 5 5 2 5 7 3 2 3 4 2 4 0 5 5 2 1 3 1 4 3 1 1 5 1 5 5 5 5 4 3 1 2 1 3 5 4 2 1 2 7 6 2 2 3 2 3 7 9 16 21 22 27 32 32 36
12 13 14 15 15 15 15 15 15 14 12 11 9 9 8 5 4 4 2 3 0 2 1 1 3 3 5 3 2 4 3 2 4 5 5 4 6 8 5 2 4 5 3 4 2 6 7 3 2 2 1 1 4 3 1 1 4 4 5 5 5 5 4 2 3 3 1 6 3 2 5 5 5 5 4 5 3 3 1 7 10 12 19 23 29 34 36 39
12 13 14 16 16 16 15 14 14 12 11 9 8 7 5 3 2 2 4 2 2 2 0 0 2 2 4 2 2 3 2 2 4 5 3 2 4 5 5 1 1 4 3 2 2 6 6 1 1 1 3 3 4 2 4 4 6 6 4 4 4 4 5 3 3 1 3 10 4 5 8 6 8 7 1 6 4 2 2 10 14 14 19 26 33 41 44 46
13 14 15 16 16 16 15 14 12 10 9 8 5 4 5 3 2 4 2 3 1 1 1 1 2 1 1 2 3 2 0 2 2 4 1 2 4 2 3 1 2 1 2 1 0 4 4 3 3 1 2 4 4 4 2 3 4 4 1 3 3 1 4 6 5 2 4 11 9 6 6 5 6 5 2 7 3 7 15 24 27 27 30 36 41 45 46 46
14 15 16 17 17 17 15 12 11 8 8 6 3 3 3 1 5 3 2 4 3 2 2 1 3 3 1 2 3 1 0 1 1 3 2 2 3 1 1 3 2 2 2 1 1 1 1 4 1 1 1 2 3 4 4 2 2 1 2 3 3 3 1 4 4 3 5 11 15 11 5 3 3 1 4 3 4 17 29 32 29 29 33 38 40 41 41 41
15 16 17 18 17 17 14 12 11 8 7 3 2 3 2 4 4 2 3 4 2 2 2 1 2 3 3 2 3 1 1 1 1 2 2 1 1 3 2 2 3 1 3 1 2 2 1 5 3 1 2 5 3 2 5 4 3 2 2 2 0 3 3 3 4 4 4 9 11 6 4 5 4 3 1 5 12 22 29 25 21 26 32 37 38 38 40 41
18 18 18 18 18 16 15 13 11 8 6 1 3 2 5 5 3 3 3 1 0 1 2 4 1 2 4 2 2 3 1 1 1 2 1 0 1 3 4 2 1 1 3 2 1 1 1 4 3 0 2 3 1 3 2 3 2 1 2 1 4 3 4 1 5 5 2 5 7 4 8 9 6 6 6 12 16 19 19 16 19 29 35 36 37 38 41 43
20 20 19 18 18 17 16 14 12 9 5 4 3 5 5 4 4 4 3 2 1 3 3 4 2 3 2 2 1 2 1 1 1 1 1 1 1 3 4 2 2 2 2 2 1 2 2 3 6 5 2 0 2 5 6 6 5 3 1 3 3 1 3 3 0 3 2 5 5 6 13 13 7 5 7 13 18 17 13 12 21 30 33 34 37 41 43 44
21 21 21 19 18 18 17 16 13 10 5 5 3 5 3 3 5 4 4 4 2 3 3 2 3 3 2 2 2 2 0 1 0 1 1 1 1 4 5 2 3 1 2 2 1 1 2 1 4 2 3 2 2 7 5 7 7 4 3 2 2 2 1 1 1 1 4 6 5 7 14 11 3 2 8 15 18 14 13 15 19 24 27 31 36 43 45 45
21 18 16 16 17 18 18 17 13 8 5 4 4 4 3 3 5 5 5 4 3 3 2 5 4 1 2 3 3 3 2 2 2 1 1 1 1 3 5 3 3 1 1 3 3 1 1 1 2 1 3 3 1 3 1 3 5 3 2 2 2 2 2 1 1 2 3 6 4 7 12 7 1 3 11 15 15 12 14 17 16 19 28 34 37 41 45 45
18 11 10 11 12 14 15 14 10 8 5 3 5 4 1 2 4 7 10 7 4 4 3 3 4 3 3 3 3 2 2 3 3 2 2 1 1 2 3 3 3 1 1 1 2 1 1 1 2 3 2 1 2 1 3 2 1 1 3 2 2 1 0 1 1 3 3 3 2 4 11 8 2 6 11 12 12 11 15 17 15 21 32 39 39 41 46 49
13 6 8 11 11 13 12 10 8 6 3 2 3 3 2 3 4 6 11 12 8 6 5 4 4 4 3 2 3 3 3 2 3 3 3 3 2 1 3 5 4 3 1 2 1 1 1 1 2 3 3 1 3 3 3 5 6 4 3 2 2 1 1 2 4 2 3 2 2 2 12 10 1 3 8 8 9 13 17 17 17 26 36 38 40 45 49 53
10 6 10 13 14 15 13 8 4 4 3 3 4 4 4 4 4 5 9 10 8 6 5 3 3 4 4 3 3 3 3 2 3 3 3 3 2 1 5 7 5 4 3 1 1 2 2 2 0 5 4 3 4 4 1 4 6 5 3 2 2 2 3 2 4 4 2 4 4 4 12 11 2 1 6 7 13 18 22 23 22 29 37 38 43 51 54 58
13 12 14 14 15 17 13 5 2 3 3 4 4 5 6 6 4 4 6 7 6 4 4 3 3 5 4 3 3 4 4 3 4 5 2 1 2 4 8 8 5 4 3 1 0 2 3 3 1 4 4 1 4 6 4 4 5 2 1 2 3 2 3 4 5 4 3 6 5 4 10 10 3 2 8 14 19 20 25 29 27 30 37 41 49 56 57 59
14 14 13 13 16 19 13 5 4 5 5 3 3 5 6 7 7 6 6 7 7 4 3 3 4 4 3 2 3 5 5 3 3 4 3 2 3 7 10 7 4 4 3 1 1 3 1 0 2 2 6 3 3 4 4 2 2 1 2 2 4 5 4 3 3 2 2 7 8 5 8 10 7 7 12 16 17 16 22 29 29 32 40 46 53 59 59 58
9 9 10 14 20 21 14 10 8 6 5 5 5 6 5 4 9 14 10 8 9 7 4 3 4 4 2 2 1 3 5 3 2 2 3 3 2 5 9 6 4 4 3 3 3 3 2 1 3 1 3 4 4 4 3 3 1 1 4 7 7 5 4 1 1 1 3 7 9 7 8 13 13 12 16 17 15 16 20 25 30 37 45 51 55 57 56 57
7 5 6 9 18 22 18 14 11 6 4 6 4 4 8 5 6 13 12 8 9 10 6 3 4 4 2 4 3 4 5 2 0 1 2 3 2 4 8 8 6 6 4 3 5 4 2 1 2 5 6 6 7 7 3 2 2 3 8 13 13 7 3 2 1 3 4 6 9 9 11 16 16 15 18 19 17 17 17 21 29 38 46 51 52 54 60 66
8 4 6 7 9 15 14 12 12 8 5 8 5 3 9 9 3 5 10 8 9 11 6 2 5 5 5 7 5 3 4 1 1 3 3 4 3 2 5 6 5 6 6 5 4 4 4 1 4 7 9 8 7 9 6 3 2 3 9 16 16 10 6 3 4 6 5 5 8 11 13 16 16 16 19 20 18 16 15 20 30 38 43 45 49 57 68 74
12 6 12 14 8 6 8 12 16 14 8 9 7 3 6 10 6 5 8 6 5 9 7 2 6 10 9 9 6 3 4 2 2 4 3 3 3 1 2 3 3 7 8 4 2 4 3 3 5 5 7 7 6 9 8 5 3 3 10 18 16 12 11 9 9 9 6 5 11 15 17 18 17 17 17 18 18 19 21 27 34 39 41 46 54 63 67 68
17 8 10 17 12 7 11 16 20 18 13 10 7 5 8 11 11 8 5 3 3 7 9 7 7 11 9 8 8 6 6 5 4 5 4 4 4 3 2 1 2 7 7 2 1 3 3 1 3 3 4 4 6 8 7 6 4 5 12 17 13 12 14 11 11 11 8 11 16 19 19 18 16 14 14 20 27 31 33 34 36 39 44 51 59 62 59 60
26 19 14 15 11 8 10 14 16 14 12 11 9 7 9 12 13 9 6 8 7 4 9 11 9 9 8 8 9 8 8 8 5 5 8 5 3 4 2 1 3 6 5 2 1 2 2 1 1 1 2 3 6 7 6 6 5 7 15 16 12 12 13 9 9 7 6 11 16 17 17 15 12 12 17 27 35 36 33 29 29 37 48 54 55 54 54 58
39 33 23 14 6 8 10 8 9 8 7 10 11 9 9 12 15 11 6 12 14 7 8 12 8 6 5 7 11 10 9 9 5 6 15 12 7 7 5 4 8 7 4 3 2 1 2 1 1 3 2 3 4 4 4 5 5 9 16 15 11 10 9 7 7 5 5 10 14 14 12 11 11 12 17 26 32 30 28 26 27 39 54 56 50 49 56 61
44 36 31 21 8 10 12 5 6 9 7 10 14 12 11 12 14 13 6 9 16 14 11 12 9 6 3 7 13 14 11 9 3 5 16 14 6 7 6 8 12 10 5 4 2 0 3 2 1 2 1 3 2 3 2 2 2 8 10 7 7 8 8 9 7 6 8 9 9 9 9 10 13 14 15 19 22 23 26 30 33 42 52 51 46 49 57 61
Wind_Direction
20 19 20 19 17 14 11 10 11 11 11 10 8 7 6 5 4 4 2 360 357 356 357 356 354 352 356 14 62 125 115 103 92 58 66 72 62 40 9 349 347 343 342 343 331 302 277 267 281 314 339 333 353 14 35 47 57 114 106 84 198 179 197 184 184 199 204 298 295 314 336 334 303 313 318 312 296 290 296 293 290 286 287 291 297 307 315 317
18 17 15 15 14 11 9 9 9 9 9 8 7 6 5 4 2 1 359 357 354 354 355 355 352 350 350 357 101 159 151 142 105 27 50 65 55 27 356 338 339 339 340 344 331 307 278 280 297 316 331 332 359 13 56 46 29 79 110 97 241 199 207 192 186 195 205 294 304 307 319 313 291 305 322 312 299 305 305 301 303 305 311 318 316 317 318 317
15 13 11 10 9 8 7 7 7 7 7 6 6 5 4 2 360 358 356 355 353 352 352 352 353 352 349 345 171 184 184 175 6 27 46 60 50 10 342 335 338 338 345 349 340 330 302 297 310 322 330 328 357 4 37 24 13 70 103 175 245 213 238 235 223 238 253 287 302 301 310 302 296 304 311 303 309 307 290 294 303 307 316 321 319 318 316 318
12 10 7 6 5 5 4 3 4 4 4 4 5 4 3 360 357 354 354 354 352 350 349 349 353 354 351 346 326 218 185 161 29 35 45 53 19 335 336 337 339 342 350 350 344 331 310 311 314 324 335 331 356 359 22 14 10 130 141 197 227 178 282 267 253 272 274 284 282 290 305 300 301 303 288 293 324 303 288 298 302 302 310 314 317 318 317 320
8 5 3 3 2 2 0 0 0 0 1 2 3 3 2 358 354 351 352 352 350 349 347 347 352 356 357 3 349 211 172 137 14 19 11 7 341 321 330 334 336 340 344 347 345 335 323 321 319 337 351 347 4 9 8 2 15 189 223 229 241 189 263 287 300 301 286 290 286 291 299 293 299 298 283 271 234 274 297 308 308 309 313 314 317 320 322 325
1 1 0 360 359 359 357 357 357 359 359 0 2 2 1 357 352 349 348 349 349 349 347 348 353 359 15 52 46 157 155 99 14 360 343 335 331 316 323 329 331 337 344 347 341 336 332 327 335 352 0 10 32 22 346 342 13 308 267 252 271 251 240 281 303 300 292 289 283 282 288 294 296 295 290 249 235 279 304 316 319 324 325 321 320 323 327 334
355 356 357 356 356 356 355 355 355 358 358 359 0 360 359 356 351 346 345 348 349 348 348 350 355 5 55 79 80 119 119 91 67 18 343 328 323 315 326 332 335 340 343 339 327 333 331 330 348 4 12 19 22 335 327 317 290 192 267 283 299 281 249 272 292 294 290 277 277 282 287 292 282 288 305 266 269 295 318 334 337 336 333 326 323 326 332 337
349 352 353 353 354 354 354 354 355 358 358 360 359 358 358 355 351 344 344 349 348 347 348 352 359 13 94 94 82 89 78 68 51 2 332 326 325 326 335 340 346 346 344 339 335 343 340 340 354 1 15 29 305 286 325 316 286 169 236 288 307 300 287 294 304 300 291 275 278 281 273 283 284 283 293 289 294 314 334 338 336 335 334 331 327 329 332 332
346 348 350 350 352 352 353 354 356 358 358 0 359 357 355 353 351 344 345 348 345 345 347 353 5 30 105 137 56 62 55 47 14 344 338 329 333 345 354 360 5 4 357 352 352 359 359 357 359 351 318 240 288 300 34 4 301 198 256 296 304 300 301 311 313 312 315 295 249 229 246 281 298 308 283 289 324 343 334 334 335 333 334 335 332 330 327 327
342 345 347 350 351 352 353 354 356 357 359 1 360 357 354 350 349 344 345 346 344 345 347 352 9 55 75 279 146 82 60 40 10 356 356 348 358 13 32 30 22 14 6 1 3 16 20 11 3 350 298 260 293 268 177 86 292 261 291 300 295 296 302 316 318 344 342 318 185 174 244 274 296 340 268 292 348 338 332 336 337 336 337 340 339 337 336 337
340 343 346 349 350 351 352 354 355 357 360 0 358 357 352 348 348 345 343 345 345 346 346 348 5 85 75 70 95 92 64 43 25 23 19 23 49 56 53 36 22 15 9 8 14 27 26 12 1 354 338 328 318 262 216 238 287 290 307 301 296 307 312 330 8 357 350 338 182 202 242 282 305 12 258 306 338 334 333 334 337 342 346 352 355 356 356 354
337 340 344 349 349 349 351 353 355 357 358 358 357 356 352 348 347 345 342 343 346 346 344 345 354 135 89 64 76 77 65 54 42 42 39 49 73 64 45 30 21 15 8 12 23 29 20 7 6 4 11 320 318 359 262 287 294 286 314 302 311 334 327 350 34 357 352 356 302 301 233 304 298 218 278 316 331 331 331 334 343 350 359 11 16 18 17 19
334 337 343 347 347 348 350 352 355 356 356 356 356 356 352 347 348 348 346 346 348 346 342 345 334 170 117 57 66 72 74 62 51 50 44 46 57 49 36 26 21 14 7 13 25 26 15 7 17 23 34 344 305 341 297 304 307 281 340 82 339 352 316 336 358 352 356 346 353 0 303 292 231 245 295 318 329 333 333 338 348 356 16 35 39 42 40 37
331 335 340 344 346 346 349 351 352 354 355 355 357 356 350 347 350 350 349 350 349 345 340 349 65 169 128 84 73 70 76 64 50 46 41 39 35 32 28 23 22 15 5 11 24 25 17 13 27 42 52 17 314 304 297 322 350 292 343 58 21 360 288 325 337 347 3 340 354 1 300 281 269 278 312 333 339 339 334 335 346 7 38 50 50 47 40 33
329 334 337 342 343 344 348 349 348 352 353 353 356 355 350 351 352 349 351 351 348 344 339 350 43 163 126 97 78 60 72 57 40 36 34 33 31 30 24 20 21 15 3 4 24 26 17 15 36 49 42 4 353 344 323 347 8 14 358 335 358 352 297 321 331 34 31 326 354 7 299 300 299 282 321 342 339 340 334 331 348 33 53 50 47 40 32 27
328 332 335 339 340 342 346 346 346 349 351 351 353 353 353 353 351 348 351 349 346 343 337 348 7 165 118 76 85 48 48 40 30 27 24 26 26 23 20 19 20 13 360 356 20 23 13 12 44 51 41 26 20 42 44 8 348 15 26 319 313 335 318 322 324 93 47 349 354 21 275 300 303 298 324 338 338 337 331 333 7 56 55 45 41 34 29 25
326 331 335 338 338 340 344 345 345 346 348 350 349 350 353 353 350 347 351 351 345 341 337 18 36 136 80 49 73 8 6 27 25 19 17 19 20 16 14 17 23 14 356 351 14 19 14 15 58 55 46 53 38 56 44 12 329 324 15 332 299 308 304 318 311 10 37 13 330 317 275 280 286 301 324 335 342 337 335 0 54 65 50 41 37 30 27 22
323 329 336 337 337 339 342 344 343 343 347 348 346 349 350 349 351 349 352 351 343 340 339 23 22 121 71 38 24 354 357 71 24 16 14 13 14 13 8 11 21 12 358 1 15 18 15 12 80 56 14 23 18 53 50 303 254 273 308 311 299 287 245 276 292 320 11 2 305 312 304 296 294 306 332 335 346 338 339 38 66 56 45 38 33 28 24 21
321 329 334 337 337 337 340 342 343 343 346 344 345 349 345 346 353 353 350 351 350 354 331 328 348 175 237 7 13 1 27 119 27 14 10 10 10 6 7 7 11 14 13 11 359 12 15 2 45 41 354 342 338 65 158 220 211 245 266 260 291 301 268 244 259 307 353 336 322 325 312 305 305 318 341 337 342 339 1 65 61 48 45 36 30 26 22 20
319 328 332 336 336 336 339 341 342 343 344 345 347 350 351 354 1 343 343 351 352 340 312 306 327 263 258 4 20 28 78 124 30 11 5 4 3 1 6 1 0 18 31 7 328 1 23 13 42 149 283 292 274 209 195 208 195 258 281 282 292 297 295 293 283 319 7 343 319 323 314 302 302 321 343 338 337 341 46 75 56 48 47 35 30 25 20 19
318 326 330 334 335 335 337 339 342 343 344 346 347 353 4 10 19 317 334 344 334 326 313 294 348 22 37 52 23 36 77 126 58 8 4 2 2 0 2 6 12 17 7 302 301 341 23 16 249 221 236 273 268 176 140 104 32 320 302 315 316 292 292 298 292 344 25 3 315 318 313 298 300 327 339 337 339 4 76 79 58 52 44 32 28 21 18 16
316 322 328 332 333 333 334 337 340 342 343 344 346 357 8 10 4 332 329 317 318 326 308 251 121 59 61 68 22 30 54 78 40 4 6 3 8 11 5 23 59 18 332 349 2 353 9 322 251 236 198 86 57 96 92 53 347 313 300 328 317 300 305 296 279 10 28 16 307 309 304 293 301 333 332 351 66 75 79 80 65 53 39 28 23 18 17 13
312 320 326 328 330 329 332 335 337 339 342 343 348 357 360 358 353 343 336 295 306 327 57 244 154 78 49 55 19 22 47 63 28 6 8 5 16 32 34 42 61 8 351 17 48 23 336 273 253 218 150 112 56 34 59 41 6 291 290 317 300 318 345 308 315 335 326 176 249 289 288 286 301 342 327 86 108 89 71 70 59 50 37 26 20 17 17 12
310 318 322 325 326 325 330 333 333 337 340 343 347 352 353 352 350 344 337 292 287 313 299 233 162 49 41 32 11 16 54 62 30 13 12 16 31 40 48 71 43 44 29 345 63 89 266 270 286 74 91 96 25 341 31 24 338 289 251 259 292 320 328 293 314 328 321 260 180 311 307 289 308 1 328 45 99 82 55 55 48 41 28 19 16 15 16 12
309 316 320 324 322 323 329 329 331 335 336 340 342 345 350 346 345 346 343 323 289 307 281 220 270 330 39 19 10 3 29 64 29 16 15 23 31 29 65 108 51 32 222 242 5 285 268 279 353 70 36 53 55 333 316 173 323 316 254 234 283 308 307 303 320 334 330 321 103 41 330 291 314 355 324 353 84 74 45 54 47 33 21 14 12 9 8 6
308 313 318 321 318 322 326 325 329 330 329 335 337 340 346 340 342 347 357 41 313 298 89 194 234 191 295 360 12 360 357 49 19 16 25 22 16 27 69 120 53 19 211 207 336 285 259 316 63 90 49 46 53 331 262 181 68 312 211 191 252 291 308 315 323 339 320 294 305 82 310 283 306 328 303 5 81 83 43 60 56 31 19 11 8 4 2 1
306 312 316 316 317 320 321 321 322 321 324 329 330 335 340 338 344 347 2 29 326 265 193 214 200 201 275 340 9 9 339 326 357 26 34 21 7 21 320 289 41 230 182 116 344 284 227 332 24 51 61 49 31 326 251 164 125 256 215 184 305 318 312 311 312 298 257 288 308 136 185 271 296 287 311 350 48 61 27 43 46 21 10 5 5 360 358 357
304 310 312 312 314 315 317 317 315 315 319 319 321 329 339 340 341 355 37 22 312 208 181 250 202 214 302 339 5 45 359 322 357 24 18 16 0 8 294 240 184 237 207 132 268 277 198 359 23 42 53 36 277 252 254 179 150 261 267 291 287 288 287 282 271 268 266 307 313 233 183 259 279 278 0 346 33 47 8 17 17 4 360 359 2 356 353 353
302 307 309 308 309 311 313 312 309 310 312 312 317 325 340 340 337 33 73 277 307 90 184 260 221 272 338 338 342 57 63 3 195 322 344 17 1 11 28 224 152 172 35 124 224 259 291 10 71 93 91 220 235 264 263 107 113 283 309 311 276 260 259 231 231 267 316 317 289 270 186 253 287 295 333 347 64 50 354 8 357 353 356 356 359 354 349 348
299 304 305 305 304 306 308 307 305 307 309 311 316 329 340 336 358 61 22 255 304 348 220 273 263 302 347 358 334 3 66 156 302 333 343 21 12 25 96 185 86 100 30 31 277 269 302 331 121 101 141 209 164 85 80 97 40 307 3 353 335 338 294 232 235 286 354 294 244 186 127 34 304 306 30 70 100 107 2 7 347 350 357 356 355 351 346 345
296 301 303 302 300 302 303 302 302 302 306 312 321 338 340 339 70 96 242 244 49 325 314 328 308 1 31 45 308 327 31 6 347 10 5 3 9 18 55 101 31 45 10 13 1 301 331 31 100 72 14 169 116 80 357 13 336 350 36 6 346 339 320 345 352 33 8 269 227 94 6 353 280 293 80 127 138 132 70 5 349 351 356 351 348 345 343 342
292 297 300 300 297 298 297 296 298 296 303 317 330 346 360 9 27 180 231 325 4 315 16 313 314 44 62 46 261 283 359 338 2 48 48 30 39 15 26 90 13 10 346 348 344 328 341 8 296 354 30 37 97 86 327 323 355 10 32 29 20 346 330 342 335 350 246 262 252 55 0 317 258 275 127 138 101 44 346 355 355 354 354 349 346 344 341 339
286 293 297 296 295 294 290 289 290 290 304 318 332 10 60 63 273 222 229 316 304 314 24 19 338 72 92 331 273 264 354 238 3 39 90 88 74 36 343 344 132 100 270 234 350 349 328 295 322 359 10 18 83 101 341 321 23 17 42 85 82 30 329 315 300 304 274 271 286 344 336 282 266 289 146 142 98 2 354 356 357 356 354 348 343 338 335 332
282 288 291 292 292 289 285 283 282 290 306 312 341 42 61 232 247 227 230 256 256 355 25 50 4 1 203 252 268 265 354 260 25 32 14 48 67 111 302 326 19 95 152 174 205 161 270 284 306 132 223 29 67 127 174 168 86 250 179 128 132 148 228 280 276 296 305 293 303 324 311 272 325 338 149 149 358 1 358 355 354 353 347 340 334 331 329 328
279 284 286 288 288 284 281 277 276 289 298 299 67 86 207 236 251 244 225 245 281 335 339 346 357 333 296 263 302 312 181 267 18 42 14 36 144 154 150 290 336 87 137 150 256 157 171 258 261 330 139 113 81 204 177 122 109 212 146 96 166 170 183 234 255 258 288 292 296 314 267 267 328 314 296 3 360 0 354 349 348 344 339 334 330 328 328 326
279 283 284 285 283 279 277 274 272 282 279 185 96 187 214 224 226 200 198 215 19 159 340 329 237 251 300 290 334 356 108 232 2 27 330 150 160 157 149 200 259 165 159 155 214 138 103 269 256 325 70 85 37 238 184 98 142 194 61 198 240 196 155 168 296 294 325 282 282 301 281 289 332 327 344 1 353 350 346 344 343 337 334 332 328 328 327 326
280 284 285 283 280 275 272 269 264 265 250 157 160 224 214 218 213 188 174 157 138 118 65 335 243 191 276 286 279 315 8 298 343 44 267 240 173 158 146 192 210 189 205 174 169 170 145 256 234 194 150 40 144 127 87 62 90 110 149 221 251 319 123 121 314 319 325 266 269 287 286 298 320 314 356 356 339 337 338 339 338 333 331 329 326 326 325 324
284 288 286 279 274 270 267 265 258 247 215 160 211 243 208 206 210 177 160 155 134 93 108 242 243 176 208 250 244 239 220 250 204 63 239 231 208 156 137 177 204 194 251 196 155 178 123 286 265 201 150 190 118 101 77 32 58 102 191 201 94 76 302 12 98 270 281 276 278 289 292 300 288 280 352 342 327 329 334 334 334 328 326 325 323 323 322 322
290 291 283 272 265 263 261 258 245 214 183 176 223 241 208 221 232 200 188 169 130 122 169 229 244 219 187 191 204 209 179 182 175 142 198 193 203 150 134 164 195 195 274 154 143 204 143 130 283 261 177 189 32 80 157 336 23 47 30 32 70 130 205 242 163 170 253 275 279 299 301 298 150 344 336 326 318 327 333 331 328 322 321 321 320 320 320 320
288 282 269 264 256 254 251 242 218 183 176 201 203 213 214 226 234 210 202 198 172 177 212 222 222 238 222 198 214 196 166 187 174 169 203 188 148 164 155 160 165 190 295 111 118 77 69 133 209 244 253 296 318 208 159 164 159 42 42 41 357 356 59 252 221 158 170 247 252 302 292 275 85 357 319 307 313 327 329 325 320 318 318 318 318 319 319 318
279 263 254 251 242 240 227 207 190 175 185 225 205 223 235 198 203 201 200 205 208 212 211 193 200 217 201 203 229 182 169 205 177 182 223 197 159 188 180 165 157 165 124 75 114 145 124 171 197 250 287 270 240 236 187 166 160 146 134 157 197 193 62 340 281 211 140 198 195 256 278 274 58 339 289 298 318 323 322 318 316 316 315 316 318 318 317 316
250 239 254 246 235 225 205 188 189 177 185 220 215 213 206 188 190 197 194 200 216 225 211 194 206 209 196 205 213 173 172 204 184 195 234 212 204 176 159 167 174 176 152 130 226 171 117 99 241 272 263 233 274 296 229 151 140 140 148 154 192 187 124 130 261 279 316 271 244 233 265 277 359 243 271 310 315 314 317 315 313 313 314 316 317 317 316 314
221 230 245 241 224 205 191 193 218 198 213 224 217 212 204 196 184 180 182 189 205 208 198 203 202 205 212 198 178 177 185 194 187 186 186 226 227 167 155 165 180 176 151 132 253 124 95 77 58 284 291 16 354 355 24 71 94 113 189 137 162 213 194 196 229 257 288 276 267 249 261 274 322 303 293 306 307 310 315 314 313 313 315 317 317 316 314 313
227 234 232 224 210 193 191 219 212 212 234 223 224 225 214 212 197 182 183 193 193 170 162 210 205 204 215 163 154 189 196 197 193 177 158 171 183 158 153 157 173 177 168 205 175 134 163 122 90 328 320 350 26 22 2 349 76 158 277 206 197 222 233 243 247 234 264 261 251 249 265 276 302 313 303 305 307 310 312 313 316 316 316 317 316 315 314 314
229 234 220 210 202 193 204 230 217 215 217 205 231 225 203 222 215 207 208 202 194 179 162 202 188 164 166 147 152 208 206 212 213 169 142 148 162 172 176 180 196 211 229 233 190 139 174 222 120 140 284 284 290 303 297 289 254 218 287 282 268 250 212 220 312 222 242 261 257 253 265 279 295 306 304 307 312 313 313 316 320 318 316 316 315 314 316 316
196 208 206 193 198 206 223 231 217 217 195 191 238 215 191 214 224 209 209 209 207 193 173 169 155 129 142 170 182 221 220 234 87 146 149 162 185 211 206 210 223 227 220 175 167 138 110 257 186 186 207 226 250 268 289 338 309 298 302 291 284 278 219 176 141 218 246 279 277 262 264 281 297 306 307 311 315 314 315 320 320 317 315 316 315 317 318 317
197 191 178 174 203 218 231 231 214 215 187 181 202 189 192 207 214 197 202 207 206 189 173 164 166 171 191 177 176 214 204 188 112 163 165 175 185 212 208 220 239 216 176 135 147 128 95 265 232 212 225 235 247 265 284 308 273 272 287 280 280 292 287 246 233 244 258 288 281 275 278 287 297 306 309 311 313 314 316 319 318 314 313 316 317 319 318 316
217 217 191 196 206 202 217 220 209 207 199 187 195 172 182 197 195 192 197 197 192 182 182 216 200 202 199 172 168 191 173 180 221 183 163 167 170 120 185 218 222 182 162 123 116 121 107 243 229 216 240 247 253 266 271 273 256 228 259 268 276 290 287 273 264 259 252 252 267 281 288 289 295 304 306 307 310 312 312 315 317 315 316 319 319 318 317 315
215 224 193 198 210 204 204 203 194 198 206 201 204 200 192 203 205 194 172 157 198 200 198 212 212 207 201 178 179 187 175 182 211 197 180 169 169 156 151 219 193 162 151 105 94 136 118 237 219 227 263 238 229 251 259 260 253 238 255 263 271 278 276 274 270 264 251 252 264 278 286 287 294 300 300 304 308 310 312 318 323 322 321 321 318 316 316 316
217 223 204 192 214 222 200 186 179 192 208 204 214 218 202 211 213 199 172 175 187 195 201 212 211 190 192 196 197 207 202 190 189 186 174 159 170 188 180 181 165 153 148 135 168 179 163 146 143 133 310 245 215 227 244 237 222 241 261 268 276 282 282 275 269 265 255 262 271 283 290 290 291 296 303 309 311 312 315 323 330 326 323 319 314 314 318 319
227 229 218 197 204 205 190 174 163 184 209 201 209 211 201 216 213 197 197 203 199 192 190 201 198 166 184 210 209 223 220 193 181 184 178 172 172 186 188 169 157 151 156 173 176 200 186 201 60 70 1 275 190 181 230 228 221 250 262 270 274 276 275 264 260 253 245 265 280 289 293 294 300 307 309 311 313 313 316 327 333 327 321 316 312 316 321 321
224 225 220 210 206 190 184 164 157 191 213 202 203 207 207 216 204 185 203 223 210 210 204 190 177 157 176 208 214 225 216 185 163 176 181 178 158 160 173 171 163 156 151 159 159 151 151 144 86 93 358 270 172 143 225 246 296 268 254 241 236 247 266 272 263 242 242 261 281 289 289 293 302 310 311 312 315 313 316 325 328 321 316 314 315 319 319 318
Height
1568 1567 1566 1565 1563 1562 1561 1559 1557 1555 1553 1551 1549 1547 1545 1543 1541 1540 1538 1536 1534 1532 1530 1528 1525 1524 1523 1522 1521 1521 1520 1520 1520 1519 1519 1519 1520 1520 1519 1518 1517 1516 1515 1514 1513 1513 1512 1511 1510 1510 1509 1508 1508 1507 1508 1508 1508 1509 1512 1515 1514 1519 1517 1511 1512 1511 1508 1505 1503 1502 1503 1504 1499 1497 1498 1496 1495 1493 1491 1488 1488 1489 1487 1486 1486 1486 1485 1483
1568 1567 1566 1565 1563 1562 1561 1559 1557 1555 1553 1552 1550 1548 1546 1544 1542 1540 1538 1536 1534 1531 1530 1527 1525 1523 1522 1522 1521 1520 1519 1520 1520 1519 1519 1520 1520 1519 1519 1518 1517 1516 1515 1514 1513 1512 1511 1511 1510 1509 1509 1508 1508 1507 1508 1508 1509 1510 1514 1515 1513 1514 1510 1506 1507 1507 1508 1506 1503 1503 1503 1503 1499 1496 1497 1496 1494 1493 1491 1485 1485 1486 1484 1485 1485 1484 1482 1481
1568 1567 1565 1565 1563 1562 1560 1559 1557 1555 1553 1552 1550 1548 1546 1544 1542 1540 1538 1536 1533 1531 1529 1527 1525 1522 1521 1521 1520 1519 1519 1519 1520 1520 1520 1520 1519 1519 1519 1518 1517 1516 1515 1514 1513 1512 1511 1511 1510 1509 1509 1508 1508 1508 1508 1509 1509 1511 1513 1513 1510 1509 1507 1506 1506 1506 1507 1506 1505 1503 1502 1501 1497 1496 1497 1496 1494 1491 1490 1486 1484 1485 1483 1483 1483 1482 1481 1479
1567 1566 1565 1564 1563 1562 1560 1559 1557 1555 1553 1552 1550 1548 1546 1543 1541 1540 1538 1536 1533 1531 1528 1526 1524 1522 1520 1519 1519 1518 1518 1519 1520 1521 1521 1520 1520 1519 1519 1518 1517 1516 1515 1514 1513 1512 1512 1511 1510 1510 1509 1508 1508 1508 1509 1509 1510 1512 1512 1509 1507 1508 1507 1505 1506 1507 1507 1507 1506 1503 1503 1500 1496 1495 1495 1497 1496 1489 1485 1485 1486 1485 1483 1483 1482 1480 1479 1477
1567 1566 1565 1564 1563 1561 1560 1559 1557 1555 1553 1551 1550 1548 1546 1543 1541 1539 1537 1535 1533 1531 1528 1525 1524 1522 1520 1519 1519 1518 1518 1521 1522 1522 1522 1521 1520 1519 1519 1518 1517 1516 1515 1514 1513 1513 1512 1511 1510 1510 1509 1509 1509 1508 1509 1510 1510 1511 1509 1506 1506 1507 1506 1504 1505 1506 1506 1506 1505 1504 1502 1498 1494 1494 1492 1496 1497 1489 1483 1484 1485 1485 1483 1482 1481 1479 1478 1477
1567 1566 1565 1564 1562 1561 1560 1559 1557 1555 1553 1551 1550 1548 1546 1543 1541 1539 1537 1535 1533 1530 1527 1525 1523 1522 1521 1519 1519 1518 1519 1522 1523 1522 1521 1521 1520 1519 1519 1517 1517 1516 1515 1514 1514 1513 1512 1512 1511 1510 1510 1510 1511 1510 1510 1510 1510 1510 1506 1504 1504 1505 1504 1503 1504 1505 1505 1506 1504 1503 1500 1496 1494 1491 1490 1493 1492 1486 1483 1484 1484 1484 1483 1482 1480 1479 1477 1477
1567 1566 1565 1563 1562 1561 1560 1558 1557 1555 1553 1551 1549 1548 1546 1543 1541 1539 1537 1535 1533 1530 1527 1525 1523 1522 1521 1520 1520 1519 1520 1522 1522 1522 1521 1521 1520 1519 1518 1518 1517 1516 1515 1515 1514 1513 1512 1512 1511 1510 1510 1510 1511 1511 1511 1510 1510 1511 1507 1503 1502 1502 1501 1502 1503 1504 1504 1504 1502 1501 1500 1496 1493 1490 1487 1487 1486 1484 1483 1484 1484 1485 1484 1483 1481 1480 1478 1477
1567 1566 1564 1563 1562 1560 1559 1558 1556 1554 1553 1551 1549 1547 1545 1543 1541 1539 1537 1535 1532 1529 1527 1525 1523 1522 1522 1522 1521 1520 1521 1521 1522 1522 1521 1521 1520 1520 1519 1518 1517 1516 1516 1515 1514 1513 1512 1512 1511 1511 1511 1511 1511 1511 1511 1510 1509 1511 1508 1503 1501 1498 1498 1500 1501 1501 1501 1501 1500 1500 1499 1494 1490 1490 1486 1483 1482 1483 1484 1484 1485 1485 1485 1484 1482 1481 1479 1478
1567 1565 1564 1563 1561 1560 1558 1557 1555 1554 1552 1551 1549 1547 1545 1543 1541 1539 1537 1535 1532 1529 1527 1524 1523 1522 1522 1522 1521 1521 1522 1522 1522 1522 1521 1521 1520 1520 1519 1518 1517 1516 1515 1514 1514 1513 1513 1512 1512 1511 1511 1511 1511 1511 1511 1510 1509 1509 1507 1504 1502 1496 1495 1498 1498 1498 1498 1497 1497 1498 1498 1493 1488 1489 1484 1480 1481 1482 1483 1484 1485 1484 1484 1484 1483 1481 1480 1479
1566 1565 1564 1563 1561 1560 1558 1556 1555 1553 1552 1550 1549 1546 1544 1543 1541 1539 1536 1534 1531 1529 1526 1524 1523 1522 1522 1522 1521 1522 1524 1523 1522 1522 1521 1521 1520 1520 1519 1519 1517 1516 1515 1514 1513 1513 1513 1512 1511 1511 1511 1511 1511 1511 1511 1510 1509 1509 1507 1504 1502 1496 1493 1495 1495 1496 1495 1493 1494 1496 1495 1491 1488 1490 1484 1479 1482 1482 1482 1483 1484 1484 1483 1483 1482 1481 1480 1479
1566 1565 1564 1563 1561 1559 1558 1556 1554 1553 1551 1550 1548 1546 1544 1542 1540 1538 1536 1534 1531 1528 1526 1524 1523 1522 1522 1521 1521 1523 1524 1523 1523 1522 1522 1521 1521 1520 1520 1519 1517 1516 1514 1513 1513 1513 1512 1511 1511 1510 1510 1511 1511 1510 1510 1510 1509 1508 1507 1503 1501 1496 1492 1493 1494 1494 1493 1492 1493 1494 1493 1490 1489 1490 1483 1480 1482 1482 1482 1483 1483 1483 1483 1483 1482 1481 1479 1478
1566 1565 1564 1562 1561 1559 1557 1556 1554 1552 1551 1549 1547 1546 1543 1541 1540 1538 1536 1533 1530 1527 1525 1523 1523 1522 1522 1522 1522 1524 1525 1524 1524 1523 1522 1522 1522 1521 1520 1519 1517 1516 1514 1513 1513 1513 1512 1511 1511 1510 1510 1511 1510 1510 1509 1509 1509 1507 1506 1504 1501 1498 1492 1491 1494 1494 1492 1492 1492 1491 1490 1489 1488 1485 1481 1481 1483 1483 1483 1483 1482 1482 1482 1482 1481 1480 1479 1478
1566 1565 1563 1562 1560 1559 1557 1555 1554 1552 1551 1549 1547 1545 1543 1541 1539 1537 1535 1533 1530 1527 1524 1523 1522 1522 1522 1522 1524 1525 1525 1525 1524 1523 1523 1522 1522 1521 1520 1519 1517 1516 1514 1513 1513 1512 1512 1511 1511 1510 1510 1511 1511 1510 1509 1509 1508 1505 1507 1506 1503 1502 1495 1490 1493 1493 1492 1491 1490 1491 1490 1485 1483 1480 1480 1483 1484 1482 1481 1481 1482 1482 1482 1481 1480 1479 1478 1478
1565 1564 1563 1562 1560 1559 1557 1555 1554 1552 1551 1548 1546 1544 1542 1541 1539 1537 1534 1532 1529 1526 1524 1523 1522 1522 1522 1523 1525 1525 1525 1525 1525 1524 1523 1522 1522 1521 1520 1519 1517 1516 1514 1513 1513 1513 1512 1511 1511 1510 1510 1511 1511 1510 1509 1509 1508 1506 1506 1505 1509 1509 1498 1492 1494 1493 1491 1491 1489 1490 1489 1482 1479 1479 1480 1484 1485 1483 1480 1479 1481 1482 1481 1481 1480 1480 1478 1478
1565 1564 1563 1561 1559 1558 1557 1555 1553 1552 1550 1548 1546 1544 1542 1540 1538 1536 1534 1531 1528 1525 1524 1522 1522 1522 1522 1524 1525 1526 1526 1526 1525 1523 1522 1522 1521 1521 1520 1519 1517 1516 1515 1514 1513 1513 1512 1511 1511 1511 1511 1511 1511 1510 1510 1509 1509 1510 1508 1506 1513 1514 1503 1496 1496 1494 1493 1493 1489 1489 1487 1478 1475 1476 1480 1485 1485 1484 1482 1479 1481 1482 1481 1481 1480 1480 1479 1477
1564 1564 1562 1560 1559 1558 1556 1555 1553 1552 1550 1548 1546 1544 1542 1540 1538 1536 1533 1531 1528 1525 1523 1522 1522 1522 1523 1524 1525 1526 1526 1526 1525 1523 1522 1521 1521 1520 1520 1519 1517 1516 1515 1514 1514 1514 1513 1512 1511 1512 1512 1511 1513 1512 1509 1509 1511 1515 1516 1513 1513 1514 1509 1500 1494 1495 1496 1493 1490 1492 1492 1482 1472 1471 1479 1486 1484 1482 1481 1479 1481 1482 1481 1482 1481 1481 1479 1477
1564 1563 1561 1560 1558 1557 1556 1554 1553 1551 1549 1547 1545 1543 1542 1540 1538 1535 1533 1530 1527 1525 1523 1523 1523 1522 1524 1525 1525 1526 1526 1526 1525 1523 1522 1521 1520 1519 1519 1518 1517 1516 1515 1514 1514 1514 1513 1512 1512 1512 1513 1514 1516 1513 1509 1515 1519 1519 1520 1519 1515 1516 1515 1505 1495 1494 1496 1495 1492 1491 1491 1484 1473 1473 1479 1484 1483 1479 1477 1478 1480 1482 1482 1482 1481 1480 1478 1476
1563 1562 1561 1559 1557 1556 1555 1554 1552 1550 1548 1547 1544 1542 1541 1539 1538 1535 1533 1530 1527 1525 1523 1522 1523 1525 1526 1525 1525 1525 1525 1526 1525 1523 1521 1520 1520 1519 1518 1517 1517 1516 1515 1514 1514 1514 1513 1512 1512 1512 1512 1514 1517 1517 1518 1523 1525 1523 1523 1523 1520 1518 1517 1513 1503 1496 1497 1497 1494 1490 1484 1476 1468 1473 1481 1482 1483 1480 1477 1479 1480 1481 1482 1482 1481 1480 1478 1477
1562 1561 1560 1559 1557 1556 1555 1553 1552 1549 1547 1546 1544 1541 1539 1537 1535 1533 1532 1529 1526 1525 1524 1524 1524 1526 1527 1525 1525 1524 1524 1525 1524 1523 1521 1520 1519 1519 1518 1517 1516 1516 1514 1514 1513 1514 1514 1512 1513 1515 1517 1518 1520 1523 1524 1524 1524 1523 1524 1525 1523 1518 1514 1513 1508 1502 1500 1496 1492 1489 1483 1471 1462 1468 1478 1478 1479 1479 1478 1479 1481 1482 1483 1483 1482 1481 1480 1478
1561 1560 1559 1558 1556 1555 1554 1553 1551 1549 1546 1544 1541 1539 1536 1534 1532 1531 1530 1528 1527 1528 1528 1527 1526 1526 1525 1524 1524 1523 1523 1523 1523 1522 1521 1520 1519 1518 1517 1516 1515 1515 1517 1519 1517 1516 1517 1517 1519 1522 1523 1522 1522 1525 1524 1524 1524 1523 1523 1523 1523 1519 1511 1506 1506 1505 1504 1500 1493 1490 1484 1468 1459 1468 1477 1477 1475 1476 1478 1481 1483 1485 1486 1485 1484 1483 1481 1479
1560 1559 1558 1557 1556 1554 1553 1552 1551 1548 1546 1543 1540 1539 1537 1536 1536 1535 1531 1528 1527 1528 1527 1527 1526 1525 1524 1524 1522 1521 1521 1521 1521 1521 1520 1520 1519 1517 1517 1517 1517 1518 1521 1523 1520 1518 1519 1520 1523 1525 1524 1523 1524 1526 1524 1524 1523 1521 1521 1521 1521 1519 1510 1503 1505 1506 1505 1505 1496 1491 1485 1462 1455 1470 1476 1475 1475 1476 1480 1483 1485 1487 1486 1486 1484 1483 1482 1480
1559 1558 1557 1556 1555 1553 1553 1551 1550 1548 1546 1544 1542 1541 1540 1540 1540 1539 1536 1531 1526 1526 1526 1526 1526 1525 1524 1523 1522 1520 1520 1520 1520 1520 1520 1519 1517 1517 1518 1519 1521 1523 1524 1523 1521 1523 1523 1520 1522 1525 1525 1525 1526 1526 1525 1523 1522 1520 1520 1522 1519 1517 1512 1501 1500 1504 1507 1509 1499 1493 1487 1459 1453 1472 1474 1473 1477 1479 1483 1484 1485 1487 1485 1484 1483 1482 1481 1478
1558 1557 1556 1555 1553 1553 1552 1551 1549 1548 1546 1544 1543 1542 1541 1540 1539 1537 1537 1533 1527 1525 1525 1525 1525 1525 1524 1523 1521 1520 1518 1519 1520 1519 1519 1519 1517 1518 1519 1521 1523 1524 1526 1524 1524 1529 1526 1521 1522 1525 1525 1524 1524 1525 1525 1523 1522 1521 1520 1521 1519 1516 1518 1509 1499 1501 1503 1506 1500 1494 1489 1462 1454 1470 1471 1472 1478 1480 1484 1483 1483 1485 1483 1484 1483 1481 1479 1475
1556 1556 1555 1553 1553 1551 1551 1550 1549 1547 1546 1544 1543 1542 1541 1540 1538 1537 1536 1534 1529 1526 1525 1525 1525 1524 1523 1522 1521 1520 1518 1519 1520 1520 1519 1519 1518 1519 1520 1522 1523 1524 1526 1526 1527 1529 1526 1522 1523 1525 1524 1522 1522 1522 1522 1522 1521 1522 1521 1521 1521 1519 1522 1518 1510 1504 1495 1498 1499 1495 1489 1464 1453 1468 1469 1470 1477 1480 1484 1483 1482 1483 1482 1483 1480 1478 1477 1475
1555 1554 1553 1553 1552 1550 1550 1549 1548 1547 1546 1545 1544 1542 1541 1539 1538 1537 1535 1534 1531 1526 1524 1525 1524 1524 1523 1522 1520 1519 1518 1519 1520 1520 1520 1519 1519 1519 1520 1522 1522 1523 1526 1527 1526 1525 1523 1523 1523 1523 1523 1522 1523 1521 1522 1523 1522 1522 1523 1523 1524 1521 1522 1520 1517 1511 1499 1496 1496 1498 1497 1468 1452 1468 1469 1469 1479 1483 1484 1483 1483 1483 1481 1480 1478 1476 1476 1474
1554 1553 1552 1552 1550 1549 1549 1547 1547 1547 1545 1545 1544 1542 1541 1539 1538 1537 1536 1536 1532 1525 1524 1525 1524 1523 1522 1521 1520 1518 1518 1520 1521 1521 1520 1520 1520 1520 1520 1521 1522 1523 1525 1525 1525 1524 1522 1524 1524 1523 1523 1522 1523 1523 1522 1524 1523 1523 1524 1527 1527 1524 1523 1520 1518 1518 1510 1500 1493 1500 1507 1482 1460 1468 1469 1470 1480 1484 1484 1484 1484 1483 1481 1480 1479 1477 1475 1473
1552 1552 1551 1550 1549 1549 1547 1546 1547 1546 1545 1545 1543 1542 1541 1539 1539 1536 1536 1539 1534 1524 1524 1524 1523 1522 1521 1521 1520 1518 1519 1520 1520 1520 1520 1520 1520 1519 1520 1520 1521 1522 1524 1525 1523 1522 1522 1522 1522 1523 1523 1524 1524 1524 1523 1524 1524 1522 1524 1528 1526 1522 1521 1519 1519 1520 1513 1504 1497 1497 1504 1494 1473 1468 1467 1467 1477 1483 1483 1484 1483 1482 1481 1480 1479 1477 1475 1473
1551 1551 1550 1549 1548 1547 1546 1546 1545 1545 1545 1544 1542 1542 1540 1539 1539 1536 1540 1546 1534 1522 1523 1523 1521 1522 1521 1520 1520 1519 1520 1520 1520 1520 1519 1520 1520 1519 1519 1519 1521 1521 1523 1525 1522 1520 1521 1521 1522 1524 1525 1526 1525 1524 1525 1525 1523 1521 1524 1526 1524 1522 1519 1519 1520 1517 1512 1510 1503 1494 1497 1499 1480 1466 1467 1467 1475 1484 1482 1482 1483 1481 1480 1479 1478 1477 1474 1472
1549 1549 1548 1548 1547 1546 1545 1545 1544 1544 1544 1543 1542 1541 1539 1540 1538 1536 1547 1549 1531 1521 1524 1522 1520 1521 1520 1520 1520 1519 1519 1520 1520 1519 1519 1520 1519 1519 1519 1519 1521 1521 1522 1524 1521 1520 1522 1522 1524 1524 1525 1525 1524 1526 1526 1525 1524 1523 1523 1522 1521 1521 1517 1518 1518 1512 1512 1511 1503 1494 1492 1497 1482 1465 1469 1473 1478 1487 1483 1482 1483 1480 1480 1479 1477 1476 1473 1471
1548 1548 1547 1546 1545 1545 1544 1543 1543 1543 1543 1542 1542 1540 1540 1539 1537 1544 1554 1545 1527 1524 1524 1521 1521 1522 1521 1520 1520 1519 1519 1520 1520 1519 1519 1519 1519 1518 1519 1520 1520 1521 1523 1525 1523 1522 1522 1522 1523 1524 1524 1524 1524 1527 1526 1525 1526 1524 1523 1520 1518 1517 1514 1517 1517 1515 1516 1505 1497 1496 1493 1500 1494 1471 1470 1478 1481 1486 1485 1484 1483 1479 1479 1477 1475 1475 1472 1470
1546 1546 1546 1545 1544 1543 1543 1543 1543 1542 1542 1542 1540 1540 1539 1538 1541 1552 1553 1535 1526 1526 1522 1522 1525 1523 1523 1523 1521 1520 1520 1520 1521 1520 1520 1520 1520 1519 1519 1520 1520 1521 1522 1523 1523 1523 1521 1522 1523 1524 1525 1524 1524 1527 1526 1526 1526 1523 1524 1523 1520 1519 1515 1516 1517 1519 1517 1497 1488 1495 1492 1502 1501 1475 1473 1484 1483 1484 1485 1484 1483 1480 1479 1477 1476 1475 1471 1469
1545 1545 1544 1543 1543 1542 1542 1542 1541 1542 1542 1541 1541 1540 1539 1543 1547 1547 1539 1528 1527 1527 1523 1525 1527 1525 1526 1526 1523 1523 1522 1522 1521 1522 1524 1525 1527 1528 1527 1527 1527 1524 1521 1524 1526 1524 1521 1523 1526 1524 1524 1524 1523 1525 1526 1525 1524 1525 1528 1527 1529 1533 1527 1521 1517 1517 1512 1490 1482 1494 1498 1501 1493 1473 1476 1484 1482 1484 1485 1483 1482 1480 1479 1477 1475 1473 1469 1468
1543 1543 1543 1542 1541 1541 1541 1541 1541 1541 1541 1540 1542 1539 1542 1552 1551 1539 1533 1529 1527 1527 1526 1528 1528 1528 1529 1525 1523 1525 1524 1523 1523 1524 1526 1527 1530 1534 1535 1535 1535 1530 1526 1531 1534 1528 1523 1524 1526 1524 1523 1524 1523 1523 1526 1525 1527 1530 1530 1530 1535 1541 1539 1532 1521 1515 1510 1492 1481 1493 1502 1496 1482 1473 1478 1481 1481 1484 1481 1479 1479 1477 1477 1475 1473 1473 1470 1468
1541 1541 1541 1540 1540 1540 1539 1540 1540 1540 1540 1541 1541 1541 1547 1554 1546 1535 1534 1531 1528 1529 1530 1530 1530 1529 1528 1525 1524 1525 1523 1523 1524 1525 1526 1526 1527 1530 1534 1535 1534 1533 1532 1533 1534 1533 1526 1520 1522 1524 1524 1525 1524 1525 1527 1527 1531 1533 1531 1532 1535 1536 1538 1538 1529 1521 1519 1505 1491 1495 1493 1482 1475 1475 1479 1480 1479 1480 1478 1477 1479 1478 1478 1477 1475 1473 1470 1466
1538 1538 1539 1538 1538 1538 1538 1539 1539 1539 1540 1540 1541 1544 1549 1548 1539 1535 1534 1529 1529 1530 1530 1531 1531 1528 1526 1525 1527 1526 1523 1523 1526 1526 1525 1526 1525 1527 1533 1535 1534 1534 1532 1528 1529 1534 1530 1521 1522 1525 1524 1525 1525 1525 1527 1527 1531 1533 1532 1533 1534 1531 1533 1536 1532 1529 1533 1527 1509 1498 1484 1470 1471 1474 1474 1477 1476 1476 1478 1478 1478 1478 1477 1476 1473 1470 1467 1463
1536 1536 1536 1536 1536 1536 1537 1537 1538 1538 1538 1539 1542 1544 1543 1538 1533 1533 1530 1528 1530 1530 1529 1531 1529 1526 1524 1523 1526 1527 1525 1525 1526 1525 1525 1527 1527 1529 1533 1535 1534 1534 1530 1526 1527 1532 1531 1524 1524 1526 1525 1524 1525 1524 1526 1525 1527 1531 1534 1532 1531 1532 1533 1538 1539 1532 1535 1537 1515 1494 1481 1470 1473 1476 1471 1474 1475 1474 1478 1477 1476 1476 1474 1472 1469 1465 1463 1459
1534 1533 1533 1534 1534 1534 1535 1535 1536 1537 1537 1539 1541 1540 1535 1531 1528 1528 1528 1528 1531 1531 1531 1532 1528 1524 1522 1520 1523 1527 1525 1525 1526 1525 1525 1526 1526 1529 1533 1533 1533 1533 1530 1528 1528 1529 1531 1525 1521 1523 1523 1523 1524 1524 1525 1525 1526 1530 1533 1532 1530 1532 1533 1542 1553 1544 1539 1538 1515 1494 1488 1481 1483 1484 1475 1474 1477 1476 1477 1476 1475 1474 1472 1470 1466 1463 1461 1456
1531 1531 1530 1531 1532 1532 1532 1534 1534 1535 1536 1538 1538 1535 1531 1528 1525 1526 1527 1528 1530 1531 1533 1532 1526 1523 1522 1521 1522 1525 1525 1523 1524 1526 1524 1524 1523 1526 1530 1531 1531 1531 1530 1529 1527 1529 1533 1526 1519 1521 1523 1522 1524 1524 1524 1525 1527 1529 1531 1531 1532 1537 1537 1540 1551 1550 1543 1539 1520 1502 1495 1486 1484 1485 1480 1479 1478 1476 1477 1476 1474 1472 1470 1468 1464 1461 1458 1454
1529 1529 1527 1527 1529 1529 1530 1531 1532 1533 1535 1536 1536 1531 1528 1525 1523 1524 1525 1526 1528 1530 1530 1529 1525 1523 1523 1522 1521 1523 1524 1522 1522 1525 1523 1520 1521 1525 1528 1528 1529 1529 1528 1529 1528 1528 1530 1527 1523 1523 1522 1522 1522 1522 1525 1527 1530 1529 1530 1532 1532 1536 1541 1539 1542 1547 1544 1539 1528 1517 1504 1488 1483 1485 1483 1481 1479 1477 1478 1476 1474 1472 1468 1466 1463 1458 1454 1451
1527 1527 1524 1524 1526 1526 1527 1528 1530 1532 1532 1531 1530 1527 1525 1523 1521 1522 1523 1524 1525 1527 1526 1526 1525 1523 1521 1522 1521 1520 1522 1522 1521 1522 1521 1519 1520 1522 1526 1527 1527 1528 1528 1528 1528 1528 1528 1528 1526 1522 1522 1522 1520 1520 1523 1527 1531 1531 1532 1537 1537 1537 1540 1539 1539 1542 1543 1540 1537 1533 1514 1487 1481 1486 1483 1480 1479 1478 1478 1476 1473 1471 1466 1463 1461 1456 1452 1447
1526 1525 1521 1522 1524 1524 1525 1527 1527 1528 1528 1526 1525 1524 1522 1520 1519 1519 1520 1521 1522 1522 1522 1523 1523 1521 1520 1521 1521 1519 1521 1522 1521 1520 1519 1519 1518 1519 1523 1526 1526 1527 1528 1527 1528 1528 1527 1528 1526 1523 1523 1522 1519 1520 1523 1524 1528 1530 1533 1536 1538 1539 1541 1544 1542 1534 1535 1537 1538 1543 1525 1489 1480 1486 1481 1479 1480 1478 1478 1476 1472 1468 1463 1460 1457 1454 1449 1443
1522 1521 1517 1519 1522 1521 1523 1524 1524 1525 1523 1520 1519 1518 1518 1516 1516 1517 1517 1519 1520 1519 1520 1521 1521 1520 1520 1518 1518 1519 1519 1519 1520 1520 1517 1516 1517 1518 1522 1525 1525 1526 1527 1526 1527 1527 1528 1530 1529 1524 1522 1522 1521 1522 1523 1525 1526 1529 1532 1533 1533 1536 1539 1546 1545 1535 1535 1534 1530 1538 1524 1485 1475 1484 1480 1479 1480 1478 1477 1474 1469 1465 1460 1456 1452 1448 1444 1438
1517 1515 1514 1516 1518 1519 1521 1521 1522 1522 1519 1515 1514 1514 1513 1513 1513 1514 1515 1516 1517 1517 1518 1519 1518 1518 1517 1516 1517 1519 1518 1516 1516 1516 1516 1517 1519 1520 1522 1524 1525 1526 1526 1525 1526 1527 1527 1530 1530 1524 1520 1522 1526 1527 1525 1527 1529 1529 1530 1531 1533 1534 1534 1538 1540 1537 1539 1535 1529 1536 1521 1483 1473 1482 1480 1479 1479 1477 1476 1472 1467 1463 1456 1452 1448 1441 1437 1432
1512 1511 1511 1513 1515 1516 1516 1514 1515 1516 1514 1513 1512 1511 1511 1511 1510 1510 1511 1511 1512 1514 1515 1515 1514 1514 1514 1515 1515 1515 1514 1513 1511 1512 1515 1517 1519 1520 1521 1523 1524 1525 1525 1523 1524 1526 1525 1526 1528 1525 1521 1521 1524 1527 1528 1528 1529 1530 1529 1530 1531 1532 1534 1535 1535 1537 1539 1531 1525 1533 1519 1485 1475 1480 1477 1476 1476 1474 1473 1470 1466 1460 1453 1448 1442 1434 1430 1426
1510 1510 1509 1510 1511 1512 1510 1506 1506 1508 1509 1510 1509 1507 1508 1508 1505 1505 1506 1507 1508 1509 1510 1510 1510 1511 1512 1515 1514 1513 1512 1510 1509 1511 1514 1517 1520 1521 1521 1522 1523 1523 1523 1523 1523 1524 1525 1525 1526 1525 1525 1524 1520 1519 1522 1526 1529 1529 1528 1527 1526 1529 1532 1534 1536 1541 1539 1527 1519 1523 1512 1487 1477 1479 1475 1473 1472 1470 1468 1466 1463 1458 1451 1444 1437 1430 1425 1421
1506 1505 1506 1508 1508 1507 1504 1502 1503 1504 1504 1507 1506 1503 1503 1504 1501 1501 1503 1504 1504 1505 1506 1506 1507 1509 1511 1513 1513 1512 1511 1511 1511 1512 1513 1516 1519 1520 1520 1521 1522 1522 1522 1522 1522 1524 1527 1529 1526 1524 1524 1524 1521 1518 1520 1526 1530 1531 1529 1524 1520 1524 1527 1530 1536 1538 1532 1525 1518 1512 1504 1489 1481 1479 1474 1470 1469 1467 1464 1463 1459 1454 1447 1441 1434 1428 1423 1417
1500 1496 1496 1502 1504 1503 1502 1501 1501 1500 1499 1501 1501 1497 1497 1498 1499 1500 1501 1501 1500 1502 1504 1504 1505 1505 1506 1509 1510 1510 1510 1512 1512 1512 1513 1515 1516 1518 1519 1519 1520 1520 1521 1522 1522 1524 1528 1529 1526 1524 1523 1521 1521 1522 1522 1527 1531 1533 1531 1522 1516 1519 1522 1526 1531 1528 1525 1527 1516 1499 1495 1491 1483 1479 1475 1469 1466 1465 1462 1461 1457 1450 1445 1439 1433 1426 1419 1410
1493 1487 1487 1492 1494 1494 1495 1495 1494 1495 1495 1495 1494 1492 1493 1495 1495 1496 1498 1498 1499 1500 1502 1503 1502 1500 1500 1502 1504 1506 1510 1512 1512 1511 1512 1513 1515 1517 1518 1518 1519 1519 1519 1521 1521 1522 1527 1526 1524 1525 1525 1523 1524 1524 1524 1527 1530 1531 1528 1520 1515 1518 1518 1520 1521 1518 1519 1523 1510 1493 1492 1491 1483 1478 1475 1469 1465 1463 1461 1459 1455 1447 1442 1437 1431 1424 1415 1404
1486 1484 1484 1486 1485 1483 1484 1484 1486 1490 1491 1490 1490 1488 1488 1489 1489 1490 1492 1496 1497 1497 1498 1498 1497 1497 1498 1499 1499 1501 1506 1506 1506 1508 1511 1512 1514 1515 1516 1517 1518 1518 1519 1521 1520 1522 1525 1524 1523 1525 1526 1525 1525 1524 1524 1526 1529 1530 1524 1516 1514 1516 1514 1513 1513 1511 1513 1512 1501 1492 1491 1487 1480 1477 1473 1468 1465 1461 1457 1456 1451 1444 1437 1432 1425 1418 1410 1401
1476 1476 1477 1481 1480 1479 1479 1480 1482 1485 1486 1486 1486 1482 1482 1482 1482 1484 1486 1487 1491 1493 1493 1492 1492 1494 1497 1497 1496 1496 1497 1496 1496 1501 1506 1509 1511 1512 1512 1512 1514 1517 1519 1520 1520 1521 1522 1522 1523 1526 1526 1524 1523 1524 1525 1525 1527 1528 1520 1512 1512 1513 1510 1509 1507 1506 1508 1504 1495 1491 1490 1483 1477 1475 1471 1466 1461 1455 1452 1452 1449 1442 1435 1427 1419 1412 1406 1398
1467 1468 1470 1475 1475 1476 1477 1476 1478 1481 1480 1479 1477 1474 1476 1476 1474 1478 1481 1480 1481 1485 1486 1487 1489 1493 1497 1497 1495 1492 1493 1495 1495 1496 1499 1502 1503 1505 1506 1506 1508 1513 1517 1519 1519 1519 1520 1522 1524 1526 1526 1521 1520 1524 1525 1524 1527 1526 1518 1511 1510 1508 1505 1504 1502 1501 1503 1500 1494 1492 1490 1481 1473 1471 1470 1464 1458 1452 1448 1449 1447 1441 1434 1426 1416 1409 1403 1396
1461 1463 1465 1468 1469 1469 1470 1472 1475 1475 1468 1465 1465 1466 1468 1468 1469 1475 1479 1477 1477 1480 1482 1484 1487 1491 1495 1495 1493 1491 1493 1495 1496 1496 1498 1499 1499 1501 1503 1504 1505 1508 1512 1516 1517 1517 1519 1521 1523 1526 1526 1522 1521 1524 1525 1528 1527 1516 1506 1504 1504 1503 1501 1498 1497 1497 1496 1494 1493 1490 1485 1477 1471 1470 1468 1462 1455 1449 1445 1446 1447 1440 1433 1426 1418 1411 1403 1395